User: anonymous   Login
Location: Bridgewater
(44.3670°N, 64.5170°W)
Time: 22:53:59
(UTC-03:00)
Language:

OPAL - Orbit

View from above orbital plane
View from above orbital plane
View from above satellite
View from above satellite

Ground track
Ground track

The orbit data is extracted from the following two-line orbital elements,

1 26063U 00004C   16148.80587987  .00000014  00000-0  24913-4 0  9991
2 26063 100.1891  75.5406 0036043 316.0940  43.7378 14.36617852856043
Epoch (UTC): 27 May 2016 19:20:28
Eccentricity: 0.0036043
inclination: 100.1891°
perigee height: 744 km
apogee height: 795 km
right ascension of ascending node: 75.5406°
argument of perigee: 316.0940°
revolutions per day: 14.36617852
mean anomaly at epoch: 43.7378°
orbit number at epoch: 85604

The dashed part of the orbit path shows where the satellite is in the earth's shadow,  

DLR